When you browse on this site, cookies collect data to enhance your experience and personalize the content and advertising you see.
Visit our Privacy Policy to learn more. By continuing to use the site, you agree to this use of cookies and data.
  • In Romania
  • List of Countries
  • For 7 days
  • Water Temperature
  • Satellite Maps
  • Weather Map
  • Weather Widgets
  • user-avatar
    Login

    Hourly Weather Kameevo

    Today, 23 July, Tuesday

    Time Temperature Precipitation Wind Pressure Humidity
    00:00 +15°C° 0 mm 1 mps 746 mmHg 93%
    01:00 +15°C° 0 mm 1 mps 745 mmHg 94%
    02:00 +14°C° 0 mm 1 mps 746 mmHg 95%
    03:00 +14°C° 0 mm 1 mps 746 mmHg 95%
    04:00 +13°C° 0 mm 1 mps 746 mmHg 96%
    05:00 +14°C° 0 mm 1 mps 746 mmHg 96%
    06:00 +15°C° 0 mm 2 mps 746 mmHg 95%
    07:00 +16°C° 0 mm 2 mps 746 mmHg 94%
    08:00 +17°C° 0 mm 2 mps 746 mmHg 91%
    09:00 +18°C° 0 mm 3 mps 746 mmHg 88%
    10:00 +19°C° 0 mm 3 mps 746 mmHg 84%
    11:00 +20°C° 0.5 mm 4 mps 746 mmHg 83%
    12:00 +20°C° 0.5 mm 4 mps 747 mmHg 82%
    13:00 +21°C° 0.5 mm 4 mps 747 mmHg 81%
    14:00 +21°C° 0.8 mm 4 mps 747 mmHg 82%
    15:00 +20°C° 0.8 mm 4 mps 747 mmHg 83%
    16:00 +20°C° 0.8 mm 4 mps 747 mmHg 84%
    17:00 +20°C° 0.3 mm 4 mps 747 mmHg 86%
    18:00 +19°C° 0.3 mm 4 mps 747 mmHg 89%
    19:00 +19°C° 0.3 mm 3 mps 747 mmHg 91%
    20:00 +18°C° 0 mm 3 mps 748 mmHg 92%
    21:00 +17°C° 0 mm 3 mps 748 mmHg 93%
    22:00 +15°C° 0 mm 2 mps 748 mmHg 95%
    23:00 +15°C° 0 mm 2 mps 748 mmHg 95%

    Tomorrow, 24 July, Wednesday

    Time Temperature Precipitation Wind Pressure Humidity
    00:00 +15°C° 0 mm 2 mps 748 mmHg 96%
    01:00 +14°C° 0 mm 2 mps 748 mmHg 96%
    02:00 +14°C° 0 mm 2 mps 748 mmHg 97%
    03:00 +14°C° 0 mm 2 mps 749 mmHg 97%
    04:00 +14°C° 0 mm 2 mps 749 mmHg 97%
    05:00 +15°C° 0 mm 2 mps 749 mmHg 96%
    06:00 +16°C° 0 mm 2 mps 749 mmHg 95%
    07:00 +17°C° 0 mm 2 mps 749 mmHg 94%
    08:00 +18°C° 0 mm 2 mps 749 mmHg 88%
    09:00 +20°C° 0 mm 2 mps 750 mmHg 83%
    10:00 +21°C° 0 mm 2 mps 750 mmHg 77%
    11:00 +23°C° 0.4 mm 2 mps 750 mmHg 78%
    12:00 +22°C° 0.4 mm 3 mps 750 mmHg 78%
    13:00 +24°C° 0.4 mm 3 mps 750 mmHg 79%
    14:00 +24°C° 0.9 mm 3 mps 750 mmHg 79%
    15:00 +24°C° 0.9 mm 3 mps 750 mmHg 79%
    16:00 +24°C° 0.9 mm 3 mps 750 mmHg 79%
    17:00 +24°C° 0.3 mm 2 mps 750 mmHg 81%
    18:00 +23°C° 0.3 mm 2 mps 750 mmHg 84%
    19:00 +23°C° 0.3 mm 2 mps 750 mmHg 86%
    20:00 +21°C° 0 mm 2 mps 750 mmHg 87%
    21:00 +19°C° 0 mm 2 mps 750 mmHg 89%
    22:00 +18°C° 0 mm 2 mps 750 mmHg 90%
    23:00 +17°C° 0 mm 2 mps 751 mmHg 90%

    Day after tomorrow, 25 July, Thursday

    Time Temperature Precipitation Wind Pressure Humidity
    00:00 +17°C° 0 mm 2 mps 751 mmHg 91%
    01:00 +16°C° 0 mm 2 mps 751 mmHg 92%
    02:00 +16°C° 0 mm 2 mps 751 mmHg 92%
    03:00 +16°C° 0 mm 2 mps 751 mmHg 92%
    04:00 +15°C° 0 mm 2 mps 751 mmHg 92%
    05:00 +17°C° 0 mm 2 mps 752 mmHg 91%
    06:00 +18°C° 0 mm 3 mps 752 mmHg 90%
    07:00 +19°C° 0 mm 3 mps 752 mmHg 89%
    08:00 +21°C° 0 mm 3 mps 752 mmHg 82%
    09:00 +22°C° 0 mm 3 mps 752 mmHg 75%
    10:00 +25°C° 0 mm 3 mps 752 mmHg 68%
    11:00 +26°C° 0 mm 3 mps 752 mmHg 64%
    12:00 +27°C° 0 mm 3 mps 752 mmHg 59%
    13:00 +28°C° 0 mm 3 mps 752 mmHg 54%
    14:00 +28°C° 0 mm 3 mps 752 mmHg 56%
    15:00 +28°C° 0 mm 3 mps 752 mmHg 57%
    16:00 +28°C° 0 mm 3 mps 752 mmHg 59%
    17:00 +27°C° 0 mm 3 mps 752 mmHg 64%
    18:00 +26°C° 0 mm 3 mps 752 mmHg 70%
    19:00 +24°C° 0 mm 3 mps 752 mmHg 76%
    20:00 +22°C° 0 mm 3 mps 752 mmHg 78%
    21:00 +20°C° 0 mm 2 mps 752 mmHg 79%
    22:00 +19°C° 0 mm 2 mps 752 mmHg 81%
    23:00 +18°C° 0 mm 2 mps 752 mmHg 82%

    26 July, Friday

    Time Temperature Precipitation Wind Pressure Humidity
    00:00 +18°C° 0 mm 3 mps 752 mmHg 83%
    01:00 +17°C° 0 mm 3 mps 752 mmHg 84%
    02:00 +17°C° 0 mm 2 mps 752 mmHg 82%
    03:00 +17°C° 0 mm 2 mps 752 mmHg 80%
    04:00 +16°C° 0 mm 1 mps 752 mmHg 78%
    05:00 +19°C° 0 mm 1 mps 752 mmHg 76%
    06:00 +20°C° 0 mm 1 mps 752 mmHg 73%
    07:00 +21°C° 0 mm 1 mps 752 mmHg 71%
    08:00 +23°C° 0 mm 1 mps 752 mmHg 66%
    09:00 +24°C° 0 mm 1 mps 752 mmHg 61%
    10:00 +26°C° 0 mm 2 mps 752 mmHg 57%
    11:00 +26°C° 0 mm 2 mps 752 mmHg 55%
    12:00 +27°C° 0 mm 2 mps 752 mmHg 53%
    13:00 +28°C° 0 mm 2 mps 751 mmHg 51%
    14:00 +28°C° 0 mm 2 mps 751 mmHg 52%
    15:00 +28°C° 0 mm 2 mps 751 mmHg 53%
    16:00 +28°C° 0 mm 2 mps 751 mmHg 54%
    17:00 +27°C° 0 mm 2 mps 750 mmHg 61%
    18:00 +26°C° 0 mm 2 mps 750 mmHg 68%
    19:00 +25°C° 0 mm 1 mps 750 mmHg 75%
    20:00 +23°C° 0 mm 1 mps 750 mmHg 79%
    21:00 +21°C° 0 mm 2 mps 750 mmHg 83%
    22:00 +19°C° 0 mm 2 mps 749 mmHg 87%
    23:00 +19°C° 0 mm 1 mps 749 mmHg 87%

    27 July, Saturday

    Time Temperature Precipitation Wind Pressure Humidity
    00:00 +19°C° 0 mm 1 mps 749 mmHg 87%
    01:00 +18°C° 0 mm 1 mps 749 mmHg 87%
    02:00 +18°C° 0 mm 1 mps 748 mmHg 86%
    03:00 +18°C° 0 mm 1 mps 748 mmHg 85%
    04:00 +16°C° 0 mm 1 mps 748 mmHg 85%
    05:00 +18°C° 0 mm 1 mps 748 mmHg 82%
    06:00 +18°C° 0 mm 0 mps 748 mmHg 79%
    07:00 +19°C° 0 mm 0 mps 748 mmHg 76%
    08:00 +20°C° 0 mm 0 mps 747 mmHg 73%
    09:00 +22°C° 0 mm 0 mps 747 mmHg 70%
    10:00 +23°C° 0 mm 0 mps 746 mmHg 67%
    11:00 +24°C° 0.3 mm 0 mps 746 mmHg 65%
    12:00 +24°C° 0.3 mm 0 mps 746 mmHg 63%
    13:00 +24°C° 0.3 mm 0 mps 745 mmHg 61%
    14:00 +25°C° 0.1 mm 0 mps 745 mmHg 59%
    15:00 +25°C° 0.1 mm 0 mps 744 mmHg 58%
    16:00 +25°C° 0.1 mm 0 mps 744 mmHg 56%
    17:00 +26°C° 0.2 mm 1 mps 743 mmHg 64%
    18:00 +24°C° 0.2 mm 1 mps 743 mmHg 71%
    19:00 +23°C° 0.2 mm 1 mps 742 mmHg 79%
    20:00 +22°C° 0 mm 1 mps 742 mmHg 81%
    21:00 +20°C° 0 mm 1 mps 741 mmHg 84%
    22:00 +17°C° 0 mm 0 mps 741 mmHg 86%
    23:00 +18°C° 0 mm 1 mps 740 mmHg 87%

    28 July, Sunday

    Time Temperature Precipitation Wind Pressure Humidity
    00:00 +18°C° 0 mm 1 mps 740 mmHg 88%
    01:00 +18°C° 0 mm 1 mps 739 mmHg 88%
    02:00 +16°C° 0 mm 1 mps 739 mmHg 90%
    03:00 +16°C° 0 mm 1 mps 738 mmHg 91%
    04:00 +16°C° 0 mm 2 mps 738 mmHg 92%
    05:00 +17°C° 0.1 mm 2 mps 737 mmHg 91%
    06:00 +18°C° 0.1 mm 2 mps 737 mmHg 89%
    07:00 +18°C° 0.1 mm 3 mps 737 mmHg 88%
    08:00 +20°C° 0.6 mm 3 mps 736 mmHg 85%
    09:00 +21°C° 0.6 mm 3 mps 735 mmHg 83%
    10:00 +22°C° 0.6 mm 4 mps 735 mmHg 81%
    11:00 +22°C° 1.6 mm 4 mps 734 mmHg 81%
    12:00 +22°C° 1.6 mm 3 mps 734 mmHg 81%
    13:00 +22°C° 1.6 mm 3 mps 734 mmHg 81%
    14:00 +22°C° 1.3 mm 3 mps 734 mmHg 83%
    15:00 +21°C° 1.3 mm 3 mps 733 mmHg 85%
    16:00 +21°C° 1.3 mm 3 mps 733 mmHg 87%
    17:00 +19°C° 0.5 mm 3 mps 733 mmHg 90%
    18:00 +17°C° 0.5 mm 4 mps 733 mmHg 93%
    19:00 +14°C° 0.5 mm 4 mps 733 mmHg 96%
    20:00 +14°C° 0.5 mm 4 mps 733 mmHg 96%
    21:00 +13°C° 0.5 mm 4 mps 733 mmHg 97%
    22:00 +12°C° 0.5 mm 4 mps 733 mmHg 97%
    23:00 +12°C° 0.4 mm 4 mps 733 mmHg 97%
    Show more